RADUGA 32 [-]

Last updated on Aug. 13, 2020, 5:30 a.m. UTC

1 23448U 94087A   20225.91990872 -.00000113  00000-0  00000-0 0  9991
2 23448  14.7608   7.8544 0002746 213.8138 147.0622  1.00261095111483
UTC
Height (km)
Latitude
Longitude
Inclination
Orbital Period
UTC large
Height (km)
Speed (km/s)
/
Latitude / Longitude
Inclination (degrees)
Orbital Period (minutes)
Azimuth
Elevation
Range (km)
Doppler Factor
iOS Compass Heading
iOS Angle

Next 30 passes for location: Hong Kong

Rise time Rise Azimuth (degrees) Set time Set Azimuth (degrees) Duration Max altitude (degrees)

No matching passes for this satellites